Regional Weather Roundup
Issued by NWS Newport/Morehead, NC

Current Version | Previous Version | Graphics & Text | Print | Product List | Glossary Off
Versions: 1 2 3 4 5 6 7 8 9 10 11 12 13 14 15 16 17 18 19 20 21 22 23 24 25 26 27 28 29 30 31 32 33 34 35 36 37 38 39 40 41 42 43 44 45 46 47 48 49 50

000
ASUS42 KMHX 242110
RWRMHX
WEATHER ROUNDUP FOR EASTERN NORTH CAROLINA
NATIONAL WEATHER SERVICE NEWPORT/MOREHEAD CITY NC
500 PM EDT FRI OCT 24 2014

NOTE: "FAIR" INDICATES FEW OR NO CLOUDS BELOW 12,000 FEET
WITH NO SIGNIFICANT WEATHER AND/OR OBSTRUCTIONS TO VISIBILITY

NCZ015>017-031-032-045>047-102-103-242200-
NORTH COAST

CITY           SKY/WX    TMP DP  RH WIND       PRES   REMARKS
EDENTON        SUNNY     68  48  48 NW7       29.93S
ELIZABETH CITY SUNNY     69  49  48 W10       29.92R
KITTY HAWK     CLEAR     64  49  58 W6        29.91S
MANTEO         SUNNY     65  50  58 NW6       29.92S

$$

NCZ045>047-081-094-103-104-242200-
CENTRAL COAST

CITY           SKY/WX    TMP DP  RH WIND       PRES   REMARKS
FRISCO         MOSUNNY   62  51  67 NW5       29.93F
SWANQUARTER      N/A     70 N/A N/A NW7G13    29.88S

$$

NCZ095-097-098-100-101-242200-
SOUTHERN COAST

CITY           SKY/WX    TMP DP  RH WIND       PRES   REMARKS
BEAUFORT       MOSUNNY   68  50  52 W6        29.94F
CEDAR ISLAND     N/A     66 N/A N/A NW9       29.97S
JACKSONVILLE   SUNNY     69  47  45 W7        29.95S
PINEY ISLAND   PTCLDY    71  48  43 NW9       29.93F
WILMINGTON     SUNNY     70  49  47 CALM      29.95F


$$

NCZ011>013-027>030-043-044-078>080-089-090>093-098-242200-
COASTAL PLAIN

CITY           SKY/WX    TMP DP  RH WIND       PRES   REMARKS
AHOSKIE        SUNNY     65  47  50 CALM      29.94S
CLINTON        SUNNY     69  49  50 CALM      29.96S
ELIZABETHTOWN  SUNNY     69  46  42 CALM      29.96S
GOLDSBORO      PTSUNNY   71  50  46 W7        29.94S
GREENVILLE     SUNNY     70  46  43 W5        29.97S
HAVELOCK       MOSUNNY   70  47  43 NW9       29.95F
KENANSVILLE    MOSUNNY   68  46  45 W5        29.96S
KINSTON        MOSUNNY   68  46  45 W3        29.96S
NEW BERN       MOSUNNY   72  48  42 W3        29.95F
RICHLANDS      MOSUNNY   70  45  40 W5        29.96R
ROCKY MOUNT    PTSUNNY   70  45  40 W5        29.95F
WASHINGTON     SUNNY     68  47  46 NW3       29.94F
WHITEVILLE     SUNNY     69  47  45 CALM      29.96S

$$

AMZ130-135-150-152-154-156-158-170-250-252-270-ANZ085-086-088-633-658-670-242200-
MARINE OBSERVATIONS

STATION/POSITION TIME  TEMP    WIND        PRES    WAVE   SWELL
                       AIR SEA DIR/SP/G            HT/PER HT/PER
                 (UTC) (F)     (DEG/KT/KT) (MB)    (FT/S) (FT/S)
CHESAPEAKE LIGHT 2000   64     310/ 16/ 17 1013.3
64 E VA BEACH    2100   62 67  300/ 16/ 17 1011.7    5/ 8   3/ 8
DUCK             2100   65 66  310/  5/  6 1012.1
2 E DUCK         2100                        N/A     3/ 7
10 NE DUCK       2100      67                N/A     4/ 7   2/11
OREGON INLET     2100   65 63  290/  8/ 10 1012.9
13E OREGON INLT  2100      69                N/A     5/ 8   2/11
HATTERAS CG      2100   65 64  310/ 10/ 11 1013.7
DIAMOND BUOY     2100   64     310/ 12/ 16 1013.3    3/ 7   3/ 7
17 S OCRACOKE    2000          VRB 12/ 16  1013.8
CAPE LOOKOUT     2000   66     260/  4/  5 1014.2
BEAUFORT LAB     2100   69 67  240/  4/  6 1013.1
30 SE NEW RIVER  2000   67 75  300/  8/ 10 1014.2
5 SE WRIGHTSVLE  2100   64 72  190/  4/  6   N/A
225 S CAPE HAT   2024   73 78  340/  6/ 10 1014.2    5/ 9   5/ 9
41 SE CHARLESTON 2100   68 78  340/  6/  8 1014.8    3/11   3/11

$$



USA.gov is the U.S. government's official web portal to all federal, state and local government web resources and services.